LEPAGMAD

Guest
Details From LEPA - Palma De Mallorca
To GMAD - Al Massira
Flight Number -
Tags Generated
Created
Modified
Stats Distance 814 nm / 1,507 km
Max Altitude 0 ft / 0 m
Waypoints 4
Social Downloads 2
Likes 0
Share VATSIM

Download

Looking for another format? Having issues loading an existing format? Contact us
Advertisement - Login to hide

Notes

Generated

Route

LEPA GOLFO OLOMA GMAD

ID Type Via Altitude Latitude Longitude Leg Dist Tot Dist Heading (true) Name
O LEPA APT - 0 ft / 0 m 39.54873˚ 2.71867˚ - 0 nm - -
GOLFO FIX - 0 ft / 0 m 36.36775˚ -2.05468˚ 295 nm 295 nm 231° / 228° -
OLOMA FIX - 0 ft / 0 m 30.64083˚ -9.07167˚ 491 nm 787 nm 228° / 224° -
O GMAD APT - 0 ft / 0 m 30.32539˚ -9.42970˚ 26 nm 813 nm 224° / 224° -

Altitude Profile

Advertisement - Login to hide

Weather


0- 5 10 15 20 25 30 35+ Temperature / ° C

Clouds and Precipitation
Forecast for 2018-05-24 18:00 UTC. Updated 5 hours ago

Ground ~20,000 ft ~40,000 ft Winds

LEPA

Details ICAO LEPA (PMI)
Name Palma De Mallorca
Region Spain
Timezone Europe/Madrid (UTC+2.0)
Stats Elevation 24 ft / 7 m (AMSL)
Location 39.552536° 2.734958°
Runways 3
Magnetic Variation 1.034° E

METAR

LEPA 242200Z 06007KT CAVOK 18/12 Q1015 NOSIG

Decode

TAF

TAF LEPA 241700Z 2418/2518 05009KT 9999 FEW030 TX28/2512Z TN15/2506Z TEMPO 2502/2510 FEW050CB BECMG 2508/2510 12013KT BECMG 2512/2514 20010KT

Decode

Departure Runways

ID Width Length Bearing (true) Bearing (mag) Surface Threshold Offset Overrun Length
06C 148 ft / 45 m 8,181 ft / 2,494 m 58.47° 57.44° Asphalt 0 ft / 0 m 0 ft / 0 m
06L 148 ft / 45 m 10,716 ft / 3,266 m 58.46° 57.43° Asphalt 0 ft / 0 m 0 ft / 0 m
06R 148 ft / 45 m 9,832 ft / 2,997 m 58.48° 57.45° Asphalt 1,345 ft / 410 m 0 ft / 0 m
24C 148 ft / 45 m 8,181 ft / 2,494 m 238.49° 237.46° Asphalt 0 ft / 0 m 0 ft / 0 m
24L 148 ft / 45 m 9,832 ft / 2,997 m 238.50° 237.47° Asphalt 0 ft / 0 m 197 ft / 60 m
24R 148 ft / 45 m 10,716 ft / 3,266 m 238.48° 237.45° Asphalt 230 ft / 70 m 0 ft / 0 m

GMAD

Details ICAO GMAD
Name Agadir AL MASSIRA
Region Morocco
Timezone Africa/Casablanca (UTC+0.0)
Stats Elevation 250 ft / 76 m (AMSL)
Location 30.322623° -9.411528°
Runways 1
Magnetic Variation 2.433° W

METAR

GMAD 242200Z 22006KT 180V250 9999 FEW023 17/14 Q1016 NOSIG

Decode

TAF

TAF GMAD 241700Z 2418/2524 20006KT 8000 FEW020 TEMPO 2421/2510 BKN016 BECMG 2512/2514 28012KT

Decode

Destination Runways

ID Width Length Bearing (true) Bearing (mag) Surface Threshold Offset Overrun Length
10 148 ft / 45 m 10,509 ft / 3,203 m 91.58° 94.01° Asphalt 0 ft / 0 m 0 ft / 0 m
28 148 ft / 45 m 10,509 ft / 3,203 m 271.60° 274.03° Asphalt 0 ft / 0 m 0 ft / 0 m

Approach Navaids

Runway Type Ident Frequency Range Bearing (true) Bearing (mag) Slope Elevation
28 Localiser ADA 110.30 MHz 18 nm / 33 km 273.07° 275.50° - 250 ft / 76 m (AMSL)
28 Glidescope ADA 110.30 MHz 10 nm / 19 km 271.59° 274.02° 3.00° 250 ft / 76 m (AMSL)

Popular Alternatives